Time,TemperatureF,DewpointF,PressureIn,WindDirection,WindDirectionDegrees,WindSpeedMPH,WindSpeedGustMPH,Humidity,HourlyPrecipIn,Conditions,Clouds,dailyrainin,SolarRadiationWatts/m^2,SoftwareType,DateUTC
2013-02-19 00:01:00,26.0,11.0,-100.00,SE,135,7.0,13.0,53,0.00,,,-99.99,0.000000,,2013-02-19 07:01:00,
2013-02-19 00:32:00,26.0,11.0,-100.00,SE,138,8.0,14.0,52,0.00,,,-99.99,0.000000,,2013-02-19 07:32:00,
2013-02-19 00:42:00,26.0,11.0,-100.00,SE,138,8.0,14.0,52,0.00,,,-99.99,0.000000,,2013-02-19 07:42:00,
2013-02-19 00:52:00,26.0,11.0,-100.00,SE,138,8.0,14.0,52,0.00,,,-99.99,0.000000,,2013-02-19 07:52:00,
2013-02-19 01:01:00,26.0,11.0,-100.00,SE,138,8.0,14.0,52,0.00,,,-99.99,0.000000,,2013-02-19 08:01:00,
2013-02-19 01:32:00,26.0,10.0,-100.00,SSE,163,3.0,10.0,50,0.00,,,0.01,0.000000,,2013-02-19 08:32:00,
2013-02-19 01:42:00,26.0,10.0,-100.00,SSE,163,3.0,10.0,50,0.00,,,0.01,0.000000,,2013-02-19 08:42:00,
2013-02-19 01:52:00,26.0,10.0,-100.00,SSE,163,3.0,10.0,50,0.00,,,0.01,0.000000,,2013-02-19 08:52:00,
2013-02-19 02:01:00,26.0,10.0,-100.00,SSE,163,3.0,10.0,50,0.00,,,0.01,0.000000,,2013-02-19 09:01:00,
2013-02-19 02:32:00,25.0,9.0,-100.00,SE,137,3.0,9.0,51,0.00,,,0.01,0.000000,,2013-02-19 09:32:00,
2013-02-19 02:42:00,25.0,9.0,-100.00,SE,137,3.0,9.0,51,0.00,,,0.01,0.000000,,2013-02-19 09:42:00,
2013-02-19 02:53:00,25.0,9.0,-100.00,SE,137,3.0,9.0,51,0.00,,,0.01,0.000000,,2013-02-19 09:53:00,
2013-02-19 03:01:00,25.0,9.0,-100.00,SE,137,3.0,9.0,51,0.00,,,0.01,0.000000,,2013-02-19 10:01:00,
2013-02-19 03:32:00,25.0,11.0,-100.00,South,169,2.0,9.0,55,0.00,,,0.01,0.000000,,2013-02-19 10:32:00,
2013-02-19 03:42:00,25.0,11.0,-100.00,South,169,2.0,9.0,55,0.00,,,0.01,0.000000,,2013-02-19 10:42:00,
2013-02-19 03:52:00,25.0,11.0,-100.00,South,169,2.0,9.0,55,0.00,,,0.01,0.000000,,2013-02-19 10:52:00,
2013-02-19 04:01:00,25.0,11.0,-100.00,South,169,2.0,9.0,55,0.00,,,0.01,0.000000,,2013-02-19 11:01:00,
2013-02-19 04:32:00,24.0,10.0,-100.00,SSE,155,2.0,5.0,54,0.00,,,0.01,0.000000,,2013-02-19 11:32:00,
2013-02-19 04:42:00,24.0,10.0,-100.00,SSE,155,2.0,5.0,54,0.00,,,0.01,0.000000,,2013-02-19 11:42:00,
2013-02-19 04:52:00,24.0,10.0,-100.00,SSE,155,2.0,5.0,54,0.00,,,0.01,0.000000,,2013-02-19 11:52:00,
2013-02-19 05:01:00,24.0,10.0,-100.00,SSE,155,2.0,5.0,54,0.00,,,0.01,0.000000,,2013-02-19 12:01:00,
2013-02-19 05:32:00,24.0,10.0,-100.00,SE,135,4.0,7.0,54,0.00,,,0.01,0.000000,,2013-02-19 12:32:00,
2013-02-19 05:42:00,24.0,10.0,-100.00,SE,135,4.0,7.0,54,0.00,,,0.01,0.000000,,2013-02-19 12:42:00,
2013-02-19 05:52:00,24.0,10.0,-100.00,SE,135,4.0,7.0,54,0.00,,,0.01,0.000000,,2013-02-19 12:52:00,
2013-02-19 06:01:00,24.0,10.0,-100.00,SE,135,4.0,7.0,54,0.00,,,0.01,0.000000,,2013-02-19 13:01:00,
2013-02-19 06:32:00,24.0,10.0,-100.00,SSW,202,3.0,11.0,55,0.00,,,0.01,0.000000,,2013-02-19 13:32:00,
2013-02-19 06:42:00,24.0,10.0,-100.00,SSW,202,3.0,11.0,55,0.00,,,0.01,0.000000,,2013-02-19 13:42:00,
2013-02-19 06:52:00,24.0,10.0,-100.00,SSW,202,3.0,11.0,55,0.00,,,0.01,0.000000,,2013-02-19 13:52:00,
2013-02-19 07:01:00,24.0,10.0,-100.00,SSW,202,3.0,11.0,55,0.00,,,0.01,0.000000,,2013-02-19 14:01:00,
2013-02-19 07:33:00,24.0,9.0,-100.00,SSW,200,4.0,7.0,53,0.00,,,0.01,0.000000,,2013-02-19 14:33:00,
2013-02-19 07:42:00,24.0,9.0,-100.00,SSW,200,4.0,7.0,53,0.00,,,0.01,0.000000,,2013-02-19 14:42:00,
2013-02-19 07:52:00,24.0,9.0,-100.00,SSW,200,4.0,7.0,53,0.00,,,0.01,0.000000,,2013-02-19 14:52:00,
2013-02-19 08:01:00,24.0,9.0,-100.00,SSW,200,4.0,7.0,53,0.00,,,0.01,0.000000,,2013-02-19 15:01:00,
2013-02-19 08:32:00,25.0,10.0,-100.00,SSE,158,4.0,10.0,53,0.00,,,-99.99,7.000000,,2013-02-19 15:32:00,
2013-02-19 08:42:00,25.0,10.0,-100.00,SSE,158,4.0,10.0,53,0.00,,,-99.99,7.000000,,2013-02-19 15:42:00,
2013-02-19 08:52:00,25.0,10.0,-100.00,SSE,158,4.0,10.0,53,0.00,,,-99.99,7.000000,,2013-02-19 15:52:00,
2013-02-19 09:01:00,25.0,10.0,-100.00,SSE,158,4.0,10.0,53,0.00,,,-99.99,7.000000,,2013-02-19 16:01:00,
2013-02-19 10:32:00,29.0,12.0,-100.00,ENE,61,3.0,9.0,49,-99.99,,,0.01,158.000000,,2013-02-19 17:32:00,
2013-02-19 10:42:00,29.0,12.0,-100.00,ENE,61,3.0,9.0,49,-99.99,,,0.01,158.000000,,2013-02-19 17:42:00,
2013-02-19 10:52:00,29.0,12.0,-100.00,ENE,61,3.0,9.0,49,-99.99,,,0.01,158.000000,,2013-02-19 17:52:00,
2013-02-19 11:01:00,29.0,12.0,-100.00,ENE,61,3.0,9.0,49,-99.99,,,0.01,158.000000,,2013-02-19 18:01:00,
2013-02-19 11:32:00,36.0,13.0,-100.00,North,349,4.0,11.0,38,0.00,,,0.01,422.000000,,2013-02-19 18:32:00,
2013-02-19 11:42:00,36.0,13.0,-100.00,North,349,4.0,11.0,38,0.00,,,0.01,422.000000,,2013-02-19 18:42:00,
2013-02-19 11:52:00,36.0,13.0,-100.00,North,349,4.0,11.0,38,0.00,,,0.01,422.000000,,2013-02-19 18:52:00,
2013-02-19 12:01:00,36.0,13.0,-100.00,North,349,4.0,11.0,38,0.00,,,0.01,422.000000,,2013-02-19 19:01:00,
2013-02-19 12:32:00,31.0,11.0,-100.00,West,273,10.0,14.0,43,0.00,,,0.00,358.000000,,2013-02-19 19:32:00,
2013-02-19 12:42:00,31.0,11.0,-100.00,West,273,10.0,14.0,43,0.00,,,0.00,358.000000,,2013-02-19 19:42:00,
2013-02-19 12:52:00,31.0,11.0,-100.00,West,273,10.0,14.0,43,0.00,,,0.00,358.000000,,2013-02-19 19:52:00,
2013-02-19 13:01:00,31.0,11.0,-100.00,West,273,10.0,14.0,43,0.00,,,0.00,358.000000,,2013-02-19 20:01:00,
2013-02-19 13:32:00,34.0,14.0,-100.00,West,280,7.0,13.0,44,0.00,,,-99.99,443.000000,,2013-02-19 20:32:00,
2013-02-19 13:42:00,34.0,14.0,-100.00,West,280,7.0,13.0,44,0.00,,,-99.99,443.000000,,2013-02-19 20:42:00,
2013-02-19 13:52:00,34.0,14.0,-100.00,West,280,7.0,13.0,44,0.00,,,-99.99,443.000000,,2013-02-19 20:52:00,
2013-02-19 14:01:00,34.0,14.0,-100.00,West,280,7.0,13.0,44,0.00,,,-99.99,443.000000,,2013-02-19 21:01:00,
2013-02-19 14:32:00,37.0,19.0,-100.00,WNW,282,10.0,15.0,47,0.00,,,0.00,376.000000,,2013-02-19 21:32:00,
2013-02-19 14:42:00,37.0,19.0,-100.00,WNW,282,10.0,15.0,47,0.00,,,0.00,376.000000,,2013-02-19 21:42:00,
2013-02-19 14:52:00,37.0,19.0,-100.00,WNW,282,10.0,15.0,47,0.00,,,0.00,376.000000,,2013-02-19 21:52:00,
2013-02-19 15:01:00,37.0,19.0,-100.00,WNW,282,10.0,15.0,47,0.00,,,0.00,376.000000,,2013-02-19 22:01:00,
2013-02-19 15:32:00,36.0,17.0,-100.00,West,262,8.0,17.0,46,0.00,,,-99.99,623.000000,,2013-02-19 22:32:00,
2013-02-19 15:42:00,36.0,17.0,-100.00,West,262,8.0,17.0,46,0.00,,,-99.99,623.000000,,2013-02-19 22:42:00,
2013-02-19 15:52:00,36.0,17.0,-100.00,West,262,8.0,17.0,46,0.00,,,-99.99,623.000000,,2013-02-19 22:52:00,
2013-02-19 16:01:00,36.0,17.0,-100.00,West,262,8.0,17.0,46,0.00,,,-99.99,623.000000,,2013-02-19 23:01:00,
2013-02-19 16:32:00,33.0,17.0,-100.00,West,270,9.0,13.0,51,0.00,,,0.00,266.000000,,2013-02-19 23:32:00,
2013-02-19 16:42:00,33.0,17.0,-100.00,West,270,9.0,13.0,51,0.00,,,0.00,266.000000,,2013-02-19 23:42:00,
2013-02-19 16:52:00,33.0,17.0,-100.00,West,270,9.0,13.0,51,0.00,,,0.00,266.000000,,2013-02-19 23:52:00,
2013-02-19 17:01:00,33.0,17.0,-100.00,West,270,9.0,13.0,51,0.00,,,0.00,266.000000,,2013-02-20 00:01:00,
2013-02-19 17:32:00,30.0,17.0,-100.00,SE,140,6.0,13.0,58,0.00,,,0.00,43.000000,,2013-02-20 00:32:00,
2013-02-19 17:42:00,30.0,17.0,-100.00,SE,140,6.0,13.0,58,0.00,,,0.00,43.000000,,2013-02-20 00:42:00,
2013-02-19 17:52:00,30.0,17.0,-100.00,SE,140,6.0,13.0,58,0.00,,,0.00,43.000000,,2013-02-20 00:52:00,
2013-02-19 18:02:00,30.0,17.0,-100.00,SE,140,6.0,13.0,58,0.00,,,0.00,43.000000,,2013-02-20 01:02:00,
2013-02-19 18:32:00,27.0,24.0,-100.00,West,279,6.0,8.0,90,0.00,,,0.00,4.000000,,2013-02-20 01:32:00,
2013-02-19 18:42:00,27.0,24.0,-100.00,West,279,6.0,8.0,90,0.00,,,0.00,4.000000,,2013-02-20 01:42:00,
2013-02-19 18:52:00,27.0,24.0,-100.00,West,279,6.0,8.0,90,0.00,,,0.00,4.000000,,2013-02-20 01:52:00,
2013-02-19 19:01:00,27.0,24.0,-100.00,West,279,6.0,8.0,90,0.00,,,0.00,4.000000,,2013-02-20 02:01:00,
2013-02-19 19:32:00,27.0,25.0,-100.00,WNW,303,4.0,10.0,93,0.00,,,0.00,0.000000,,2013-02-20 02:32:00,
2013-02-19 19:42:00,27.0,25.0,-100.00,WNW,303,4.0,10.0,93,0.00,,,0.00,0.000000,,2013-02-20 02:42:00,
2013-02-19 19:52:00,27.0,25.0,-100.00,WNW,303,4.0,10.0,93,0.00,,,0.00,0.000000,,2013-02-20 02:52:00,
2013-02-19 20:01:00,27.0,25.0,-100.00,WNW,303,4.0,10.0,93,0.00,,,0.00,0.000000,,2013-02-20 03:01:00,
2013-02-19 20:32:00,26.0,24.0,-100.00,NNW,328,6.0,10.0,93,0.00,,,0.00,0.000000,,2013-02-20 03:32:00,
2013-02-19 20:42:00,26.0,24.0,-100.00,NNW,328,6.0,10.0,93,0.00,,,0.00,0.000000,,2013-02-20 03:42:00,
2013-02-19 20:52:00,26.0,24.0,-100.00,NNW,328,6.0,10.0,93,0.00,,,0.00,0.000000,,2013-02-20 03:52:00,
2013-02-19 21:01:00,26.0,24.0,-100.00,NNW,328,6.0,10.0,93,0.00,,,0.00,0.000000,,2013-02-20 04:01:00,
2013-02-19 21:32:00,25.0,23.0,-100.00,NW,320,3.0,10.0,93,0.00,,,0.00,0.000000,,2013-02-20 04:32:00,
2013-02-19 21:42:00,25.0,23.0,-100.00,NW,320,3.0,10.0,93,0.00,,,0.00,0.000000,,2013-02-20 04:42:00,
2013-02-19 21:52:00,25.0,23.0,-100.00,NW,320,3.0,10.0,93,0.00,,,0.00,0.000000,,2013-02-20 04:52:00,
2013-02-19 22:02:00,25.0,23.0,-100.00,NW,320,3.0,10.0,93,0.00,,,0.00,0.000000,,2013-02-20 05:02:00,
2013-02-19 22:32:00,25.0,23.0,-100.00,NW,314,3.0,7.0,93,0.00,,,-99.99,0.000000,,2013-02-20 05:32:00,
2013-02-19 22:43:00,25.0,23.0,-100.00,NW,314,3.0,7.0,93,0.00,,,-99.99,0.000000,,2013-02-20 05:43:00,
2013-02-19 22:52:00,25.0,23.0,-100.00,NW,314,3.0,7.0,93,0.00,,,-99.99,0.000000,,2013-02-20 05:52:00,
2013-02-19 23:01:00,25.0,23.0,-100.00,NW,314,3.0,7.0,93,0.00,,,-99.99,0.000000,,2013-02-20 06:01:00,
2013-02-19 23:32:00,25.0,23.0,-100.00,NW,310,5.0,7.0,92,0.00,,,0.00,0.000000,,2013-02-20 06:32:00,
2013-02-19 23:42:00,25.0,23.0,-100.00,NW,310,5.0,7.0,92,0.00,,,0.00,0.000000,,2013-02-20 06:42:00,
2013-02-19 23:52:00,25.0,23.0,-100.00,NW,310,5.0,7.0,92,0.00,,,0.00,0.000000,,2013-02-20 06:52:00,